RH
31 31 34 43 44 46 50 47 53 57 55 44 57 66 43 32 42 44 43 46 50 53 52 56 55 56 54 52 62 52 55 58 56 59 63 70 74 80 83 84 85 87 80 78
31 32 42 45 43 40 45 50 63 43 34 34 43 47 72 40 36 39 42 44 47 52 53 55 58 63 62 60 59 56 51 53 50 51 55 62 67 77 83 81 85 92 78 73
36 32 35 37 48 40 43 57 46 35 32 36 33 41 42 47 50 41 38 41 44 48 52 52 57 59 64 70 67 67 57 57 54 50 51 58 69 78 86 79 77 76 75 67
39 41 41 35 37 39 37 41 39 34 32 40 36 36 42 41 63 60 44 42 43 48 49 56 58 62 64 64 62 63 62 59 58 56 55 61 66 73 73 73 67 77 74 69
33 42 39 39 39 36 36 38 36 33 37 38 39 40 44 47 68 67 57 48 44 47 48 56 56 57 59 60 60 57 59 60 59 58 59 65 62 63 68 71 74 76 78 72
32 35 36 38 39 38 42 36 29 26 29 36 39 44 44 41 49 47 62 53 43 44 46 47 50 48 50 55 57 57 58 58 60 57 58 59 60 60 61 58 58 64 68 71
28 35 38 41 39 38 36 34 32 29 35 50 45 40 41 38 46 45 40 51 48 46 45 45 43 46 50 56 56 55 55 55 57 61 63 61 62 60 59 61 62 65 68 70
29 29 33 36 33 35 38 37 36 52 61 64 46 55 51 43 39 36 32 28 31 49 47 50 50 51 52 55 60 59 56 57 56 58 65 70 61 65 73 71 71 72 68 72
24 27 26 29 36 32 39 35 41 48 43 41 44 46 50 48 43 41 32 26 28 36 56 81 62 63 55 54 57 61 60 61 61 61 66 74 80 79 79 82 77 75 76 81
20 22 23 24 31 30 29 32 41 52 59 49 51 42 46 42 47 65 40 32 30 31 36 44 47 47 50 56 57 60 62 61 60 64 66 67 78 83 75 76 74 74 78 83
15 18 22 22 31 29 30 27 34 35 48 35 35 34 45 50 41 39 42 32 31 33 32 34 39 43 50 54 49 50 54 56 60 64 67 67 68 65 65 64 64 67 79 87
12 19 24 29 25 26 30 26 24 29 26 26 24 53 51 55 67 58 41 44 40 38 36 38 41 46 51 52 50 53 54 55 55 59 60 58 57 56 55 51 51 58 65 72
13 20 25 29 31 25 21 24 27 27 27 29 27 44 48 43 69 57 48 46 43 42 44 47 50 51 51 46 42 43 44 48 53 55 55 55 51 47 43 43 46 50 54 58
18 21 25 26 34 21 24 25 29 30 30 27 32 43 42 44 47 53 51 42 43 40 44 46 49 50 44 35 37 39 41 42 43 46 45 42 40 40 44 47 47 50 54 54
15 23 24 25 29 32 31 26 23 24 24 26 35 31 40 42 45 55 44 37 42 40 44 42 44 41 36 35 37 39 35 34 37 39 39 38 40 43 47 47 43 41 43 47
16 23 26 30 30 30 27 25 26 28 27 22 25 35 43 44 47 59 40 37 41 41 43 40 38 39 38 36 39 40 40 41 41 43 42 45 48 49 51 54 48 41 44 45
17 25 28 33 29 29 26 23 22 19 24 27 29 41 47 58 61 53 46 43 42 42 44 40 38 37 38 39 42 39 38 40 42 44 47 48 49 49 48 46 45 45 45 46
27 17 23 25 28 33 28 21 20 20 25 27 35 46 43 42 45 45 43 40 41 43 43 42 42 40 41 41 43 44 45 45 46 48 50 50 50 48 48 43 44 45 47 50
33 29 20 22 24 25 28 21 24 27 27 27 34 43 40 39 40 43 43 41 42 44 43 44 45 45 45 44 47 50 50 50 50 51 51 51 49 49 46 45 47 45 44 39
28 30 24 21 24 28 28 27 27 28 31 30 39 39 43 44 44 51 48 48 49 45 45 47 49 47 48 49 52 55 56 55 50 48 47 48 50 50 48 44 39 30 25 28
34 32 28 21 26 30 36 36 32 33 43 46 40 44 44 41 41 43 50 47 45 46 48 50 49 49 50 53 56 57 56 50 47 47 48 48 45 39 34 29 25 23 21 22
55 41 34 27 24 29 38 37 37 42 36 42 41 39 36 39 41 44 46 43 44 46 48 48 48 48 50 51 54 54 51 49 47 45 43 38 30 26 27 23 22 22 24 26
60 64 53 40 45 39 37 31 35 45 46 43 39 39 41 43 46 47 50 45 45 46 47 48 51 49 51 52 51 48 47 46 41 35 33 30 28 27 28 27 28 30 31 31
67 66 71 44 50 48 46 43 43 48 57 47 44 44 41 41 40 43 43 40 41 45 49 52 51 48 49 47 45 44 41 34 30 30 30 28 29 31 32 33 34 35 35 32
80 86 61 48 59 55 52 45 49 53 46 45 42 43 42 42 43 45 45 45 42 44 45 46 46 45 45 44 43 36 31 29 29 28 28 31 35 36 35 36 36 37 36 34
48 58 60 64 58 59 58 48 40 41 43 45 44 43 47 45 46 48 49 48 44 42 42 43 42 44 46 43 35 30 29 28 29 30 35 35 34 33 33 36 38 37 35 35